Regional Weather Roundup
Issued by NWS

Home | Current Version | Previous Version | Text Only | Print | Product List | Glossary Off
Versions: 1 2 3 4 5 6 7 8 9 10 11 12 13 14 15 16 17 18 19 20 21 22 23 24 25 26 27 28 29 30 31 32 33 34 35 36 37 38 39 40 41 42 43 44 45 46 47 48

689
ASUS45 KBOU 021907
RWRCO

WEATHER ROUNDUP FOR COLORADO
NATIONAL WEATHER SERVICE DENVER/BOULDER CO
100 PM MDT MON MAY 02 2016

NOTE: "FAIR" INDICATES FEW OR NO CLOUDS BELOW 12000 FEET WITH NO
SIGNIFICANT WEATHER AND/OR OBSTRUCTIONS TO VISIBILITY.

COZ001>005-013-030-031-022000-
...NORTHWEST COLORADO...

CITY           SKY/WX    TMP DP  RH WIND       PRES   REMARKS
CRAIG          FAIR      55  27  34 W12       30.24F
HAYDEN         FAIR      50  25  37 NW9       30.24F
MEEKER         FAIR      57  28  33 W10       30.23F
MOUNT WERNER   NOT AVBL
STEAMBOAT SPGS CLOUDY    48  29  47 W8        30.24S
WALDEN         FAIR      46  23  39 NW6       30.26F
$$

COZ006>008-011-022000-
...WEST CENTRAL VALLEYS...

CITY           SKY/WX    TMP DP  RH WIND       PRES   REMARKS
GRAND JUNCTION PTSUNNY   60  36  40 NW7       30.20F
MONTROSE       FAIR      57  34  41 VRB5      30.24F
EAGLE          MOSUNNY   55  23  28 CALM      30.22F
RIFLE          FAIR      59  31  34 VRB3      30.20F
DELTA          NOT AVBL
NUCLA          NOT AVBL
$$

COZ017>023-064>068-022000-
...SOUTHWEST COLORADO...

CITY           SKY/WX    TMP DP  RH WIND       PRES   REMARKS
DURANGO        FAIR      50  34  54 CALM      30.25F
CORTEZ         FAIR      55  35  47 MISG      30.24F
PAGOSA SPRINGS FAIR      46  32  56 SW7       30.27F
TELLURIDE      CLOUDY    44  28  51 W7        30.30F
WOLF CREEK PAS CLOUDY    28  28 100 CALM      30.36F FOG
$$

COZ009-010-012-014-032>034-037-058>063-022000-
...CENTRAL COLORADO...

CITY           SKY/WX    TMP DP  RH WIND       PRES   REMARKS
ASPEN          PTSUNNY   50  22  33 N8G16     30.22F
BUENA VISTA    FAIR      49  27  42 SW3       30.22F
COPPER MTN     NOT AVBL
BERTHOUD PASS  FAIR      21  12  68 N16G25    30.32F WCI   7
COTTONWOOD PAS FAIR      45  28  53 E3        30.27F
GUNNISON       FAIR      48  28  46 SW12      30.26F
KREMMLING      FAIR      54  23  30 S5        30.24F
LEADVILLE      FAIR      41  17  38 N9        30.25F
MONARCH PASS   FAIR      28  25  86 MISG      30.43S
SALIDA         FAIR      52  29  42 E3        30.29F
SUNLIGHT       PTSUNNY   36  28  75 CALM      30.36F
WILKERSON PASS FAIR      34  27  75 CALM      30.33S
$$

COZ069>075-022000-
...SAN LUIS VALLEY/SANGRE DE CRISTO MOUNTAINS...

CITY           SKY/WX    TMP DP  RH WIND       PRES   REMARKS
ALAMOSA        PTSUNNY   49  29  46 VRB5      30.24F
LA VETA PASS   PTSUNNY   39  32  75 S5        30.29F
SAGUACHE       FAIR      46  32  57 S7        30.25F
$$

COZ035-036-038>040-022000-
...NORTHERN COLORADO FRONT RANGE...

CITY           SKY/WX    TMP DP  RH WIND       PRES   REMARKS
DENVER INTL AP FAIR      51  25  36 SW5       30.19F
DMNS CITY PARK   N/A     54  21  27 E9        30.18F
AURORA         FAIR      48  28  45 SE6       30.20F
FRONT RANGE AP MOSUNNY   48  28  46 SE3       30.20F
ERIE MUNI ARPT FAIR      53  20  27 CALM      30.18F
BOULDER MUN AP FAIR      54   9  16 CALM      30.18F
CENTENNIAL     FAIR      48  23  37 CALM      30.20F
BROOMFIELD     MOSUNNY   52  21  30 SW5       30.20F
FORT COLLINS   FAIR      55  23  28 CALM      30.20F
LONGMONT       FAIR      57  26  30 CALM      30.20F HAZE
$$

COZ041-046-047-076>085-087-088-022000-
...PIKES PEAK/PALMER DIVIDE AND SOUTHERN FOOTHILLS...

CITY           SKY/WX    TMP DP  RH WIND       PRES   REMARKS
COLO. SPRINGS  FAIR      51  22  31 VRB6      30.21F
A. F. ACADEMY  FAIR      46  27  46 N5        30.21F
SCHRIEVER AFB  NOT AVBL
ELLICOTT       MIX PCPN N/A N/A N/A NW7       30.20F
FALCON         FAIR      49  23  36 W5        30.23F
FORT CARSON    FAIR      51  29  42 VRB5      30.20F
LIMON          FAIR      43  28  55 W10       30.22F
MONUMENT HILL  FAIR      41  19  42 W3        30.24F
TRINIDAD       FAIR      50  33  52 VRB3      30.22F
$$

COZ042>045-048>051-090-091-022000-
...NORTHEAST COLORADO...

CITY           SKY/WX    TMP DP  RH WIND       PRES   REMARKS
GREELEY ARPT   FAIR      54  28  37 NW5       30.20F
AKRON          FAIR      51  27  39 NW5       30.18F
BURLINGTON     FAIR      57  29  34 NW13G18   30.19F
WRAY           NOT AVBL
STERLING       FAIR      57  32  38 CALM      30.15F
HOLYOKE        NOT AVBL
FORT MORGAN    FAIR      55  21  26 W6        30.19F
$$

COZ086-089-092>099-022000-
...SOUTHEAST COLORADO...

CITY           SKY/WX    TMP DP  RH WIND       PRES   REMARKS
PUEBLO         FAIR      54  30  40 E6        30.20F
LA JUNTA       FAIR      56  33  42 N12       30.20F
LAMAR          FAIR      57  31  37 N13       30.18F
SPRINGFIELD      N/A     54  33  45 VRB7G23   30.20F
$$




USA.gov is the U.S. government's official web portal to all federal, state and local government web resources and services.